SCP
0 0 0 0 0 0 0 0 0 0 0 0 0 0 0 0 0 0 0 0 0 0 0 0 0 0 0 0 0 0 0 0 0 0 0 0 0 0 0 0 0 0 0
0 0 0 0 0 0 0 0 0 0 0 0 0 0 0 0 0 0 0 0 0 0 0 0 0 0 0 0 0 0 0 0 0 0 0 0 0 0 0 0 0 0 0
0 0 0 0 0 0 0 0 0 0 0 0 0 0 0 0 0 0 0 0 0 0 0 0 0 0 0 0 0 0 0 0 0 0 0 0 0 0 0 0 0 0 0
0 0 0 0 0 0 0 0 0 0 0 0 0 0 0 0 0 0 0 0 0 0 0 0 0 0 0 0 0 0 0 0 0 0 0 0 0 0 0 0 0 0 0
0 0 0 0 0 0 0 0 0 0 0 0 0 0 0 0 0 0 0 0 0 0 0 0 0 0 0 0 0 0 0 0 0 0 0 0 0 0 0 0 0 0 0
0 0 0 0 0 0 0 0 0 0 0 0 0 0 0 0 0 0 0 0 0 0 0 0 0 0 0 0 0 0 0 0 0 0 0 0 0 0 0 0 0 0 0
0 0 0 0 0 0 0 0 0 0 0 0 0 0 0 0 0 0 0 0 0 0 0 0 0 0 0 0 0 0 0 0 0 0 0 0 0 0 0 0 0 0 0
0 0 0 0 0 0 0 0 0 0 0 0 0 0 0 0 0 0 0 0 0 0 0 0 0 0 0 0 0 0 0 0 0 0 0 0 0 0 0 0 0 0 0
0 0 0 0 0 0 0 0 0 0 0 0 0 0 0 0 0 0 0 0 0 0 0 0 0 0 0 0 0 0 0 0 0 0 0 0 0 0 0 0 0 0 0
0 0 0 0 0 0 0 0 0 0 0 0 0 0 0 0 0 0 0 0 0 0 0 0 0 0 0 0 0 0 0 0 0 0 0 0 0 0 0 0 0 0 0
0 0 0 0 0 0 0 0 0 0 0 0 0 0 0 0 0 0 0 0 0 0 0 0 0 0 0 0 0 0 0 0 0 0 0 0 0 0 0 0 0 0 0
0 0 0 0 0 0 0 0 0 0 0 0 0 0 0 0 0 0 0 0 0 0 0 0 0 0 0 0 0 0 0 0 0 0 0 0 0 0 0 0 0 0 0
0 0 0 0 0 0 0 0 0 0 0 0 0 0 0 0 0 0 0 0 0 0 0 0 0 0 0 0 0 0 0 0 0 0 0 0 0 0 0 -0 0 0 0
0 0 0 0 0 0 0 0 0 0 0 0 0 0 0 0 0 0 0 0 0 0 0 0 0 0 0 0 0 0 0 0 0 0 0 0 0 0 0 -0 0 -0 -0
0 0 0 0 0 0 0 0 0 0 0 0 0 0 0 0 0 0 0 0 0 0 0 0 0 0 0 0 0 0 0 0 0 0 0 -0 -0 -0 0 -0 -0 -0 0
0 0 0 0 0 0 0 0 0 0 0 0 0 0 0 0 0 0 0 0 0 0 0 0 0 0 0 0 0 0 -0 0 -0 -0 -0 -0 -0 0 0 0 0 0 0
0 0 0 0 0 0 0 0 0 0 0 0 0 0 0 0 0 0 0 0 0 0 0 0 0 0 0 0 0 0 0 0 0 0 0 0 0 0 0 0 0 0 0
0 0 0 0 0 0 0 0 0 0 0 0 0 0 0 0 0 0 0 0 0 0 0 0 0 0 0 0 0 0 0 0 0 0 0 0 0 0 0 0 0 0 0
0 0 0 0 0 0 0 0 0 0 0 0 0 0 0 0 0 0 0 0 0 0 0 0 0 0 0 0 0 0 0 0 0 0 0 0 0 0 0 0 0 0 0
0 0 0 0 0 0 0 0 0 0 0 0 0 0 0 0 0 0 0 0 0 0 0 0 0 0 0 0 0 0 0 0 0 0 0 0 0 0 0 0 0 0 0
0 0 0 0 0 0 0 0 0 0 0 0 0 0 0 0 0 0 0 0 0 0 0 0 0 0 0 0 0 0 0 0 0 0 0 0 0 0 0 0 0 0 0
0 0 0 0 0 0 0 0 0 0 0 0 0 0 0 0 0 0 0 0 0 0 0 0 0 0 0 0 0 0 0 0 0 0 0 0 0 0 0 0 0 0 0
0 0 0 0 0 0 0 0 0 0 0 0 0 0 0 0 0 0 0 0 0 0 0 0 0 0 0 0 0 0 0 0 0 0 0 0 0 0 0 0 0 0 0
0 0 0 0 0 0 0 0 0 0 0 0 0 0 0 0 0 0 0 0 0 0 0 0 0 0 0 0 0 0 0 0 0 0 0 0 0 0 0 0 0 0 0
0 0 0 0 0 0 0 0 0 0 0 0 0 0 0 0 0 0 0 0 0 0 0 0 0 0 0 0 0 0 0 0 0 0 0 0 -0 -0 -0 -0 -0 0 0
0 0 0 0 0 0 0 0 0 0 0 0 0 0 0 0 0 0 0 0 0 0 0 0 0 0 0 0 0 0 0 0 0 0 0 0 -0 0 0 0 0 -0 -0
Wind_Speed_500mb
54 43 37 31 31 40 40 44 44 44 39 42 49 52 55 52 60 64 63 57 48 49 50 50 50 51 55 54 52 51 55 63 63 65 68 70 70 71 75 71 68 71 62
46 34 26 35 41 45 45 47 48 46 41 38 40 38 35 38 49 46 48 51 48 47 50 50 49 49 49 52 53 56 61 65 64 63 66 57 59 68 68 62 56 63 60
35 27 21 26 32 35 34 34 37 38 38 34 31 34 33 34 32 31 32 37 38 34 38 40 44 44 45 50 50 49 50 57 57 57 55 29 31 40 51 58 59 63 66
17 11 15 19 24 25 25 24 23 22 20 25 26 29 30 28 22 18 19 24 23 25 24 30 33 39 43 46 47 46 48 49 54 55 59 62 67 51 41 34 46 51 69
9 7 13 17 18 18 16 14 12 13 16 22 25 23 25 25 26 24 21 19 21 24 24 27 28 32 34 37 39 41 42 44 48 52 57 65 67 72 74 62 62 58 68
5 6 11 11 11 10 9 7 6 6 1 8 17 24 27 27 27 23 23 24 26 30 34 30 30 27 27 31 36 38 40 40 43 48 52 53 63 64 66 64 71 67 69
10 7 5 5 6 3 3 5 8 11 11 10 11 13 14 17 19 19 18 20 22 24 29 29 34 32 33 34 31 27 34 40 46 50 49 51 57 59 68 72 78 74 83
13 12 11 9 9 6 5 6 9 13 16 18 18 17 16 14 13 12 11 8 6 3 2 5 8 11 15 18 23 30 30 30 32 34 40 49 52 52 54 58 64 73 73
16 14 14 14 13 13 12 12 12 15 16 18 19 18 17 16 16 13 10 9 7 6 5 7 10 12 16 19 20 24 29 32 37 41 41 47 45 47 52 61 68 69 66
20 18 15 15 16 16 15 16 16 16 19 18 19 18 16 14 13 11 8 5 3 3 6 9 14 18 20 24 27 28 30 33 36 37 40 42 47 51 56 60 60 63 70
27 24 22 22 21 19 18 17 17 15 15 14 13 11 9 5 2 1 3 4 5 8 11 12 14 17 21 23 28 32 36 40 43 44 47 49 52 56 57 58 58 58 56
33 30 29 27 26 24 21 17 15 13 9 7 5 2 1 1 3 4 8 9 11 12 14 16 18 22 26 29 34 37 41 45 50 53 56 58 59 60 60 63 68 71 72
40 37 34 32 27 30 26 24 20 18 15 9 5 3 5 7 7 6 6 8 11 13 15 16 17 20 25 29 34 40 44 47 48 51 53 55 60 64 70 74 73 74 79
45 40 36 36 36 33 30 26 21 15 10 7 6 6 6 7 8 7 6 9 11 11 12 15 19 22 28 32 37 41 45 48 50 52 53 56 58 65 68 70 74 75 79
50 52 48 45 39 39 36 28 24 19 16 14 13 12 12 10 9 9 3 3 5 8 14 18 23 27 30 39 46 50 54 58 59 61 62 66 70 68 68 67 70 73 77
62 57 52 51 48 43 38 31 25 23 21 16 14 14 14 10 8 5 2 3 8 13 16 21 25 30 35 43 50 54 55 56 59 62 63 65 68 71 72 72 67 65 72
71 68 62 58 56 50 41 34 26 21 22 17 16 16 14 11 8 2 2 5 11 16 20 23 27 31 35 42 47 50 50 51 52 55 59 61 64 68 73 75 75 76 78
72 75 71 65 62 55 44 37 30 27 24 22 22 18 16 11 7 2 3 8 12 15 19 23 26 30 34 39 43 47 49 51 53 57 60 63 66 67 74 80 83 82 82
77 75 81 78 67 54 45 39 33 28 26 26 24 18 16 13 8 4 2 7 11 15 19 23 25 28 32 38 44 50 54 55 54 54 57 61 67 71 71 80 88 91 91
75 85 87 74 63 56 48 39 39 36 32 28 23 22 18 14 7 3 4 7 11 15 18 21 26 30 34 38 44 52 58 61 64 61 59 58 62 67 70 76 82 91 95
84 75 71 68 63 54 45 38 33 36 34 30 27 21 17 11 7 5 8 10 13 15 19 24 29 32 38 40 45 49 52 56 62 64 66 68 71 71 69 67 72 75 85
71 69 68 64 58 52 46 41 38 36 33 30 24 19 13 10 9 8 8 12 16 19 23 25 27 30 34 40 44 50 51 52 59 63 65 70 71 72 69 68 70 73 78
63 61 63 59 54 49 44 41 41 33 32 28 22 18 15 12 9 8 10 13 15 20 23 27 31 34 37 41 46 52 53 54 56 58 62 66 70 72 73 71 70 73 78
64 62 59 54 48 43 44 41 36 37 33 28 23 18 13 10 9 10 12 16 18 21 24 28 32 35 38 41 47 53 56 58 61 64 68 69 70 71 73 77 75 72 74
61 59 56 51 48 47 40 39 37 35 31 25 20 16 13 12 12 12 13 16 19 21 24 28 31 35 37 38 41 47 52 57 61 67 69 72 76 80 81 81 79 77 77
56 56 53 52 47 41 41 38 35 30 26 23 20 17 14 12 11 12 14 15 17 20 22 26 29 32 36 40 43 49 52 53 61 66 70 73 75 77 80 82 83 80 80
Wind_Direction_500mb
275 282 285 286 285 286 284 283 279 273 264 257 256 250 249 248 254 261 265 267 259 253 255 257 257 259 261 266 267 265 267 270 273 275 278 281 283 283 285 286 285 286 288
274 279 285 276 288 294 293 288 279 277 266 253 247 243 242 245 264 269 262 264 263 252 249 257 258 256 257 265 268 264 266 271 272 267 277 280 285 288 291 292 287 284 283
278 279 288 294 299 304 302 297 284 273 268 257 243 238 235 239 242 239 258 274 271 260 252 254 255 256 254 259 268 267 271 271 276 276 272 273 279 283 284 283 282 283 286
262 278 288 297 305 309 314 312 301 279 268 252 237 232 233 240 248 247 243 246 258 270 271 265 261 258 261 263 270 270 270 276 279 285 282 285 285 283 290 290 282 276 283
240 256 282 290 302 312 322 328 323 291 251 234 206 218 233 233 228 232 230 240 244 250 253 253 266 273 276 279 278 281 284 284 289 290 294 291 293 286 275 278 284 286 287
194 249 268 275 295 302 318 333 357 3 114 194 199 204 214 223 232 245 249 245 252 250 253 253 252 259 269 277 278 281 279 284 290 291 291 297 287 285 282 281 285 288 289
193 193 222 251 245 261 336 24 51 61 88 118 146 174 188 209 224 231 239 237 238 252 259 265 268 264 271 270 270 275 288 290 285 285 291 291 293 297 296 288 291 289 296
208 190 206 211 209 193 159 115 102 98 101 107 118 133 141 152 159 152 153 162 171 185 268 296 298 295 290 288 287 283 273 276 286 293 304 304 304 300 298 299 299 296 293
193 190 181 187 188 178 166 148 129 120 117 116 116 118 120 124 122 120 113 101 80 56 21 347 326 317 311 308 307 302 299 294 286 283 284 283 285 297 306 310 296 285 285
192 183 175 184 186 176 164 154 144 136 126 124 125 121 119 116 113 111 110 99 61 342 318 309 309 306 305 302 295 293 294 297 300 299 298 299 298 296 291 287 292 299 297
195 187 186 191 188 177 167 160 155 148 141 136 127 121 115 111 89 350 345 325 323 313 306 305 303 300 301 307 308 309 309 312 311 311 309 308 306 304 302 301 298 295 295
196 191 191 189 186 184 180 171 166 164 154 138 146 165 169 294 302 314 313 318 318 323 324 320 320 320 322 318 318 319 320 320 319 319 318 319 317 317 316 310 309 306 300
194 192 192 191 192 192 192 189 189 186 186 189 197 243 282 294 298 308 316 312 319 324 324 329 329 335 330 330 330 335 335 334 333 333 332 332 331 327 325 322 319 312 308
198 196 195 196 202 201 201 202 199 201 200 211 239 273 292 293 290 297 329 329 325 336 348 349 354 350 343 343 339 344 347 349 348 347 346 344 341 337 335 332 326 325 320
200 200 200 199 204 206 206 208 217 225 232 236 241 251 262 253 252 265 293 319 359 1 11 6 360 356 352 351 352 355 354 352 351 351 348 347 346 346 339 337 330 327 323
207 204 202 202 204 208 212 219 223 223 221 233 255 257 248 240 243 245 286 343 15 18 19 12 6 3 359 357 358 357 355 350 347 346 344 342 340 336 333 331 328 325 322
206 204 204 204 206 210 213 215 222 236 243 239 243 245 241 240 248 271 353 27 25 21 19 14 9 2 358 355 353 349 346 343 342 340 339 336 334 331 327 323 322 323 325
203 205 206 206 208 209 210 213 217 227 236 237 241 233 230 230 223 241 358 20 22 13 13 9 5 360 354 349 344 338 338 338 342 343 342 337 335 335 334 332 330 332 333
210 202 208 209 208 206 208 214 221 227 233 234 231 226 226 223 216 217 321 15 9 2 360 356 354 350 346 343 339 336 336 335 337 340 341 342 341 340 341 337 334 333 332
196 204 210 207 206 207 214 217 223 225 235 231 225 223 217 218 226 250 330 355 349 347 348 346 344 342 341 339 338 337 339 339 340 343 343 343 339 339 342 338 336 333 334
199 207 207 205 207 208 210 213 214 217 223 222 217 215 213 218 240 290 325 330 333 334 338 343 341 338 338 339 338 337 342 342 340 342 343 343 342 343 340 337 336 335 331
198 202 201 203 205 206 208 212 218 221 219 215 210 210 214 230 249 275 311 328 335 334 331 329 329 332 333 335 338 342 345 343 340 340 340 340 341 340 340 339 336 333 332
199 198 200 199 200 203 206 208 212 213 213 212 207 207 215 230 256 292 308 306 310 314 318 324 329 332 334 336 331 333 338 339 338 337 338 337 338 338 338 342 342 339 339
198 200 199 199 200 199 201 204 210 210 208 206 206 209 218 234 256 274 286 297 309 316 323 328 330 331 331 332 332 334 335 335 334 334 337 338 335 336 337 338 342 345 343
196 201 201 199 197 196 201 203 200 202 202 203 208 212 219 231 246 267 287 303 312 319 325 325 325 327 328 332 332 332 333 333 331 331 332 333 335 337 338 339 341 344 343
193 193 194 195 194 198 198 195 196 198 201 206 212 216 226 242 261 278 293 307 313 316 318 320 320 319 321 322 322 325 327 330 329 332 332 335 336 337 337 338 340 343 344
Wind_Speed_850mb
54 43 37 31 31 40 40 44 44 44 39 42 49 52 55 52 60 64 63 57 48 49 50 50 50 51 55 54 52 51 55 63 63 65 68 70 70 71 75 71 68 71 62
46 34 26 35 41 45 45 47 48 46 41 38 40 38 35 38 49 46 48 51 48 47 50 50 49 49 49 52 53 56 61 65 64 63 66 57 59 68 68 62 56 63 60
35 27 21 26 32 35 34 34 37 38 38 34 31 34 33 34 32 31 32 37 38 34 38 40 44 44 45 50 50 49 50 57 57 57 55 29 31 40 51 58 59 63 66
17 11 15 19 24 25 25 24 23 22 20 25 26 29 30 28 22 18 19 24 23 25 24 30 33 39 43 46 47 46 48 49 54 55 59 62 67 51 41 34 46 51 69
9 7 13 17 18 18 16 14 12 13 16 22 25 23 25 25 26 24 21 19 21 24 24 27 28 32 34 37 39 41 42 44 48 52 57 65 67 72 74 62 62 58 68
5 6 11 11 11 10 9 7 6 6 1 8 17 24 27 27 27 23 23 24 26 30 34 30 30 27 27 31 36 38 40 40 43 48 52 53 63 64 66 64 71 67 69
10 7 5 5 6 3 3 5 8 11 11 10 11 13 14 17 19 19 18 20 22 24 29 29 34 32 33 34 31 27 34 40 46 50 49 51 57 59 68 72 78 74 83
13 12 11 9 9 6 5 6 9 13 16 18 18 17 16 14 13 12 11 8 6 3 2 5 8 11 15 18 23 30 30 30 32 34 40 49 52 52 54 58 64 73 73
16 14 14 14 13 13 12 12 12 15 16 18 19 18 17 16 16 13 10 9 7 6 5 7 10 12 16 19 20 24 29 32 37 41 41 47 45 47 52 61 68 69 66
20 18 15 15 16 16 15 16 16 16 19 18 19 18 16 14 13 11 8 5 3 3 6 9 14 18 20 24 27 28 30 33 36 37 40 42 47 51 56 60 60 63 70
27 24 22 22 21 19 18 17 17 15 15 14 13 11 9 5 2 1 3 4 5 8 11 12 14 17 21 23 28 32 36 40 43 44 47 49 52 56 57 58 58 58 56
33 30 29 27 26 24 21 17 15 13 9 7 5 2 1 1 3 4 8 9 11 12 14 16 18 22 26 29 34 37 41 45 50 53 56 58 59 60 60 63 68 71 72
40 37 34 32 27 30 26 24 20 18 15 9 5 3 5 7 7 6 6 8 11 13 15 16 17 20 25 29 34 40 44 47 48 51 53 55 60 64 70 74 73 74 79
45 40 36 36 36 33 30 26 21 15 10 7 6 6 6 7 8 7 6 9 11 11 12 15 19 22 28 32 37 41 45 48 50 52 53 56 58 65 68 70 74 75 79
50 52 48 45 39 39 36 28 24 19 16 14 13 12 12 10 9 9 3 3 5 8 14 18 23 27 30 39 46 50 54 58 59 61 62 66 70 68 68 67 70 73 77
62 57 52 51 48 43 38 31 25 23 21 16 14 14 14 10 8 5 2 3 8 13 16 21 25 30 35 43 50 54 55 56 59 62 63 65 68 71 72 72 67 65 72
71 68 62 58 56 50 41 34 26 21 22 17 16 16 14 11 8 2 2 5 11 16 20 23 27 31 35 42 47 50 50 51 52 55 59 61 64 68 73 75 75 76 78
72 75 71 65 62 55 44 37 30 27 24 22 22 18 16 11 7 2 3 8 12 15 19 23 26 30 34 39 43 47 49 51 53 57 60 63 66 67 74 80 83 82 82
77 75 81 78 67 54 45 39 33 28 26 26 24 18 16 13 8 4 2 7 11 15 19 23 25 28 32 38 44 50 54 55 54 54 57 61 67 71 71 80 88 91 91
75 85 87 74 63 56 48 39 39 36 32 28 23 22 18 14 7 3 4 7 11 15 18 21 26 30 34 38 44 52 58 61 64 61 59 58 62 67 70 76 82 91 95
84 75 71 68 63 54 45 38 33 36 34 30 27 21 17 11 7 5 8 10 13 15 19 24 29 32 38 40 45 49 52 56 62 64 66 68 71 71 69 67 72 75 85
71 69 68 64 58 52 46 41 38 36 33 30 24 19 13 10 9 8 8 12 16 19 23 25 27 30 34 40 44 50 51 52 59 63 65 70 71 72 69 68 70 73 78
63 61 63 59 54 49 44 41 41 33 32 28 22 18 15 12 9 8 10 13 15 20 23 27 31 34 37 41 46 52 53 54 56 58 62 66 70 72 73 71 70 73 78
64 62 59 54 48 43 44 41 36 37 33 28 23 18 13 10 9 10 12 16 18 21 24 28 32 35 38 41 47 53 56 58 61 64 68 69 70 71 73 77 75 72 74
61 59 56 51 48 47 40 39 37 35 31 25 20 16 13 12 12 12 13 16 19 21 24 28 31 35 37 38 41 47 52 57 61 67 69 72 76 80 81 81 79 77 77
56 56 53 52 47 41 41 38 35 30 26 23 20 17 14 12 11 12 14 15 17 20 22 26 29 32 36 40 43 49 52 53 61 66 70 73 75 77 80 82 83 80 80
Wind_Direction_850mb
275 282 285 286 285 286 284 283 279 273 264 257 256 250 249 248 254 261 265 267 259 253 255 257 257 259 261 266 267 265 267 270 273 275 278 281 283 283 285 286 285 286 288
274 279 285 276 288 294 293 288 279 277 266 253 247 243 242 245 264 269 262 264 263 252 249 257 258 256 257 265 268 264 266 271 272 267 277 280 285 288 291 292 287 284 283
278 279 288 294 299 304 302 297 284 273 268 257 243 238 235 239 242 239 258 274 271 260 252 254 255 256 254 259 268 267 271 271 276 276 272 273 279 283 284 283 282 283 286
262 278 288 297 305 309 314 312 301 279 268 252 237 232 233 240 248 247 243 246 258 270 271 265 261 258 261 263 270 270 270 276 279 285 282 285 285 283 290 290 282 276 283
240 256 282 290 302 312 322 328 323 291 251 234 206 218 233 233 228 232 230 240 244 250 253 253 266 273 276 279 278 281 284 284 289 290 294 291 293 286 275 278 284 286 287
194 249 268 275 295 302 318 333 357 3 114 194 199 204 214 223 232 245 249 245 252 250 253 253 252 259 269 277 278 281 279 284 290 291 291 297 287 285 282 281 285 288 289
193 193 222 251 245 261 336 24 51 61 88 118 146 174 188 209 224 231 239 237 238 252 259 265 268 264 271 270 270 275 288 290 285 285 291 291 293 297 296 288 291 289 296
208 190 206 211 209 193 159 115 102 98 101 107 118 133 141 152 159 152 153 162 171 185 268 296 298 295 290 288 287 283 273 276 286 293 304 304 304 300 298 299 299 296 293
193 190 181 187 188 178 166 148 129 120 117 116 116 118 120 124 122 120 113 101 80 56 21 347 326 317 311 308 307 302 299 294 286 283 284 283 285 297 306 310 296 285 285
192 183 175 184 186 176 164 154 144 136 126 124 125 121 119 116 113 111 110 99 61 342 318 309 309 306 305 302 295 293 294 297 300 299 298 299 298 296 291 287 292 299 297
195 187 186 191 188 177 167 160 155 148 141 136 127 121 115 111 89 350 345 325 323 313 306 305 303 300 301 307 308 309 309 312 311 311 309 308 306 304 302 301 298 295 295
196 191 191 189 186 184 180 171 166 164 154 138 146 165 169 294 302 314 313 318 318 323 324 320 320 320 322 318 318 319 320 320 319 319 318 319 317 317 316 310 309 306 300
194 192 192 191 192 192 192 189 189 186 186 189 197 243 282 294 298 308 316 312 319 324 324 329 329 335 330 330 330 335 335 334 333 333 332 332 331 327 325 322 319 312 308
198 196 195 196 202 201 201 202 199 201 200 211 239 273 292 293 290 297 329 329 325 336 348 349 354 350 343 343 339 344 347 349 348 347 346 344 341 337 335 332 326 325 320
200 200 200 199 204 206 206 208 217 225 232 236 241 251 262 253 252 265 293 319 359 1 11 6 360 356 352 351 352 355 354 352 351 351 348 347 346 346 339 337 330 327 323
207 204 202 202 204 208 212 219 223 223 221 233 255 257 248 240 243 245 286 343 15 18 19 12 6 3 359 357 358 357 355 350 347 346 344 342 340 336 333 331 328 325 322
206 204 204 204 206 210 213 215 222 236 243 239 243 245 241 240 248 271 353 27 25 21 19 14 9 2 358 355 353 349 346 343 342 340 339 336 334 331 327 323 322 323 325
203 205 206 206 208 209 210 213 217 227 236 237 241 233 230 230 223 241 358 20 22 13 13 9 5 360 354 349 344 338 338 338 342 343 342 337 335 335 334 332 330 332 333
210 202 208 209 208 206 208 214 221 227 233 234 231 226 226 223 216 217 321 15 9 2 360 356 354 350 346 343 339 336 336 335 337 340 341 342 341 340 341 337 334 333 332
196 204 210 207 206 207 214 217 223 225 235 231 225 223 217 218 226 250 330 355 349 347 348 346 344 342 341 339 338 337 339 339 340 343 343 343 339 339 342 338 336 333 334
199 207 207 205 207 208 210 213 214 217 223 222 217 215 213 218 240 290 325 330 333 334 338 343 341 338 338 339 338 337 342 342 340 342 343 343 342 343 340 337 336 335 331
198 202 201 203 205 206 208 212 218 221 219 215 210 210 214 230 249 275 311 328 335 334 331 329 329 332 333 335 338 342 345 343 340 340 340 340 341 340 340 339 336 333 332
199 198 200 199 200 203 206 208 212 213 213 212 207 207 215 230 256 292 308 306 310 314 318 324 329 332 334 336 331 333 338 339 338 337 338 337 338 338 338 342 342 339 339
198 200 199 199 200 199 201 204 210 210 208 206 206 209 218 234 256 274 286 297 309 316 323 328 330 331 331 332 332 334 335 335 334 334 337 338 335 336 337 338 342 345 343
196 201 201 199 197 196 201 203 200 202 202 203 208 212 219 231 246 267 287 303 312 319 325 325 325 327 328 332 332 332 333 333 331 331 332 333 335 337 338 339 341 344 343
193 193 194 195 194 198 198 195 196 198 201 206 212 216 226 242 261 278 293 307 313 316 318 320 320 319 321 322 322 325 327 330 329 332 332 335 336 337 337 338 340 343 344